Regional Weather Roundup
Issued by NWS Northern Indiana

Home | Current Version | Previous Version | Graphics & Text | Print | Product List | Glossary On
Versions: 1 2 3 4 5 6 7 8 9 10 11 12 13 14 15 16 17 18 19 20 21 22 23 24 25 26 27 28 29 30 31 32 33 34 35 36 37 38 39 40 41 42 43 44 45 46 47 48 49 50
177
ASUS43 KIWX 272200
RWRIWX

KIWX WEATHER ROUNDUP
NATIONAL WEATHER SERVICE NORTHERN INDIANA
600 PM EDT WED JUL 27 2016

NOTE: "FAIR" INDICATES FEW OR NO CLOUDS BELOW 12,000 FEET WITH NO
SIGNIFICANT WEATHER AND/OR OBSTRUCTIONS TO VISIBILITY.

* THESE STATIONS ARE NOT UNDER NWS QUALITY CONTROL. THEY ALSO MAY NOT
  REPORT WEATHER SUCH AS PRECIPITATION OR FOG.

INZ001>027-272300-
NORTHERN INDIANA

CITY           SKY/WX    TMP DP  RH WIND       PRES   REMARKS
GARY*          MOSUNNY   86  66  51 NE5       29.94S
KNOX*          SUNNY     84  52  32 CALM      29.94F
SOUTH BEND     SUNNY     85  67  54 N12       29.95F
ELKHART*       MOSUNNY   86  73  66 N12       29.95F
GOSHEN         MOSUNNY   87  59  38 NE7       29.94F
MONTICELLO*    MOSUNNY   85  61  44 SW3       29.94F
WARSAW*        SUNNY     84  64  51 N3        29.94F
ANGOLA*          N/A     88  63  42 N7        29.96S
FORT WAYNE     MOSUNNY   88  58  36 W7        29.95F
PERU/GRISSOM   SUNNY     87  66  50 VRB3      29.94F

$$
INZ028>050-272300-
CENTRAL INDIANA

CITY           SKY/WX    TMP DP  RH WIND       PRES   REMARKS
LAFAYETTE      CLOUDY    83  69  62 SW6       29.95S
KOKOMO*        MOSUNNY   90  64  43 N6        29.95F
MUNCIE*        SUNNY     88  61  40 NW6       29.96F
INDIANAPOLIS   PTSUNNY   87  66  49 S3        29.95F

$$
MIZ043>046-050>051-056>058-064>065-071>073-077>080-272300-
SOUTHWEST LOWER MICHIGAN

CITY           SKY/WX    TMP DP  RH WIND       PRES   REMARKS
BATTLE CREEK   PTSUNNY   83  67  58 W8        29.96F
BENTON HARBOR  SUNNY     83  63  50 VRB5      29.95F
COLDWATER*     SUNNY     85  60  42 NW5       29.96F
HILLSDALE*     MOSUNNY   85  63  46 NW6       29.97S
HOLLAND        CLOUDY    83  67  58 W6        29.97S
GRAND RAPIDS   PTSUNNY   85  65  51 NW9       29.96S
KALAMAZOO      MOSUNNY   87  67  51 NW8       29.95F
STURGIS*       SUNNY     85  61  43 CALM      29.95F
THREE RIVERS*  FAIR      87  61  41 CALM      29.95F

$$
OHZ001>008-015>018-024>025-272300-
NORTHWEST OHIO

CITY           SKY/WX    TMP DP  RH WIND       PRES   REMARKS
DEFIANCE       MOSUNNY   91  60  35 NE5       29.93F
FINDLAY        MOSUNNY   90  57  32 W8        29.93F
TOLEDO EXPRESS MOSUNNY   88  64  44 N7        29.94F
TOLEDO METCALF MOSUNNY   89  60  37 W7        29.94F
LIMA           SUNNY     87  65  47 N3        29.95F

$$
AND FOR LAKE MICHIGAN COASTAL AND OPEN LAKE BUOY OBSERVATIONS

STATION/POSITION TEMP    WIND        PRES    VSBY  WAVE
                 AIR SEA DIR/SP/G                  HT/PER
                 (F)     (DEG/KT/KT) (MB)    (MI)  (FT/S)
CALUMET HARBOR    82      80/  8/ 11 1013.3F
MICHIGAN CITY     78      40/ 10/ 10   N/A
BURNS HARBOR      80      60/ 10/ 11 1014.6F
SAINT JOSEPH      80      10/  4/  6 1015.2F
SOUTH LAKE BUOY   78 77  140/  6/  6 1013.6
4 MI NW BRIDGMAN  78 80   30/  6/  6 1013.9F         0
MICHIGAN CITY     79 78   80/  8/ 10   N/A           0

$$
&&




USA.gov is the U.S. government's official web portal to all federal, state and local government web resources and services.